Time,TemperatureF,DewpointF,PressureIn,WindDirection,WindDirectionDegrees,WindSpeedMPH,WindSpeedGustMPH,Humidity,HourlyPrecipIn,Conditions,Clouds,dailyrainin,SoftwareType,DateUTC
2013-01-03 00:10:00,14.0,10.6,30.23,East,80,7.0,13.0,86,0.00,,,0.00,Wunderground v.1.15,2013-01-03 05:10:00,
2013-01-03 00:39:00,13.7,10.5,30.22,East,93,5.0,13.0,87,0.00,,,0.00,Wunderground v.1.15,2013-01-03 05:39:00,
2013-01-03 01:10:00,13.2,10.1,30.20,East,90,8.0,13.0,87,0.00,,,0.00,Wunderground v.1.15,2013-01-03 06:10:00,
2013-01-03 01:39:00,13.1,10.0,30.21,East,86,5.0,5.0,87,0.00,,,0.00,Wunderground v.1.15,2013-01-03 06:39:00,
2013-01-03 02:10:00,13.2,10.3,30.21,East,98,2.0,13.0,88,0.00,,,0.00,Wunderground v.1.15,2013-01-03 07:10:00,
2013-01-03 02:40:00,13.3,10.4,30.21,East,92,2.0,2.0,88,0.00,,,0.00,Wunderground v.1.15,2013-01-03 07:40:00,
2013-01-03 03:10:00,13.4,10.5,30.20,East,89,1.0,13.0,88,0.00,,,0.00,Wunderground v.1.15,2013-01-03 08:10:00,
2013-01-03 03:40:00,13.0,10.4,30.20,East,96,1.0,13.0,89,0.00,,,0.00,Wunderground v.1.15,2013-01-03 08:40:00,
2013-01-03 04:09:00,13.2,10.6,30.19,SE,134,1.0,13.0,89,0.00,,,0.00,Wunderground v.1.15,2013-01-03 09:09:00,
2013-01-03 04:40:00,13.9,11.5,30.18,SE,134,0.0,13.0,90,0.00,,,0.00,Wunderground v.1.15,2013-01-03 09:40:00,
2013-01-03 05:10:00,14.7,12.3,30.17,SW,231,1.0,1.0,90,0.00,,,0.00,Wunderground v.1.15,2013-01-03 10:10:00,
2013-01-03 05:40:00,14.4,12.0,30.18,WSW,250,1.0,1.0,90,0.00,,,0.00,Wunderground v.1.15,2013-01-03 10:40:00,
2013-01-03 06:10:00,14.2,11.8,30.17,WSW,250,0.0,13.0,90,0.00,,,0.00,Wunderground v.1.15,2013-01-03 11:10:00,
2013-01-03 06:39:00,14.2,12.1,30.17,WSW,253,0.0,13.0,91,0.00,,,0.00,Wunderground v.1.15,2013-01-03 11:39:00,
2013-01-03 07:10:00,14.4,12.3,30.17,WSW,253,0.0,13.0,91,0.00,,,0.00,Wunderground v.1.15,2013-01-03 12:10:00,
2013-01-03 07:40:00,14.7,12.6,30.16,WSW,253,0.0,13.0,91,0.00,,,0.00,Wunderground v.1.15,2013-01-03 12:40:00,
2013-01-03 08:09:00,15.3,13.1,30.16,WSW,253,0.0,13.0,91,0.00,,,0.00,Wunderground v.1.15,2013-01-03 13:09:00,
2013-01-03 08:40:00,16.3,14.1,30.15,SW,229,0.0,13.0,91,0.00,,,0.00,Wunderground v.1.15,2013-01-03 13:40:00,
2013-01-03 09:09:00,18.7,16.5,30.13,SW,229,0.0,13.0,91,0.00,,,0.00,Wunderground v.1.15,2013-01-03 14:09:00,
2013-01-03 09:40:00,21.3,18.3,30.14,SW,236,2.0,13.0,88,0.00,,,0.00,Wunderground v.1.15,2013-01-03 14:40:00,
2013-01-03 10:10:00,22.5,18.9,30.14,SSW,196,3.0,3.0,86,0.00,,,0.00,Wunderground v.1.15,2013-01-03 15:10:00,
2013-01-03 10:39:00,23.2,18.8,30.13,SSW,196,4.0,13.0,83,0.00,,,0.00,Wunderground v.1.15,2013-01-03 15:39:00,
2013-01-03 11:10:00,23.8,18.8,30.11,WSW,238,4.0,13.0,81,0.00,,,0.00,Wunderground v.1.15,2013-01-03 16:10:00,
2013-01-03 11:39:00,24.3,19.0,30.09,SW,215,4.0,13.0,80,0.00,,,0.00,Wunderground v.1.15,2013-01-03 16:39:00,
2013-01-03 12:10:00,24.8,19.5,30.07,SSW,210,4.0,4.0,80,0.00,,,0.00,Wunderground v.1.15,2013-01-03 17:10:00,
2013-01-03 12:40:00,25.6,19.7,30.05,SW,222,4.0,4.0,78,0.00,,,0.00,Wunderground v.1.15,2013-01-03 17:40:00,
2013-01-03 13:09:00,25.9,19.7,30.04,South,186,4.0,4.0,77,0.00,,,0.00,Wunderground v.1.15,2013-01-03 18:09:00,
2013-01-03 13:40:00,26.4,20.5,30.02,SW,226,3.0,13.0,78,0.00,,,0.00,Wunderground v.1.15,2013-01-03 18:40:00,
2013-01-03 14:09:00,26.7,21.1,30.01,SSW,194,3.0,13.0,79,0.00,,,0.00,Wunderground v.1.15,2013-01-03 19:09:00,
2013-01-03 15:10:00,27.1,22.0,30.01,SW,216,3.0,13.0,81,0.00,,,0.00,Wunderground v.1.15,2013-01-03 20:10:00,
2013-01-03 15:39:00,27.1,22.0,30.01,SW,214,2.0,13.0,81,0.00,,,0.00,Wunderground v.1.15,2013-01-03 20:39:00,
2013-01-03 16:10:00,28.1,21.5,30.01,WSW,244,4.0,13.0,76,0.00,,,0.00,Wunderground v.1.15,2013-01-03 21:10:00,
2013-01-03 16:40:00,28.1,21.2,30.01,WSW,241,5.0,13.0,75,0.00,,,0.00,Wunderground v.1.15,2013-01-03 21:40:00,
2013-01-03 17:10:00,27.7,21.7,30.01,SW,236,5.0,5.0,78,0.00,,,0.00,Wunderground v.1.15,2013-01-03 22:10:00,
2013-01-03 17:40:00,27.6,22.5,30.02,WSW,242,7.0,7.0,81,0.00,,,0.00,Wunderground v.1.15,2013-01-03 22:40:00,
2013-01-03 18:10:00,27.7,23.5,30.02,SW,226,7.0,13.0,84,0.00,,,0.00,Wunderground v.1.15,2013-01-03 23:10:00,
2013-01-03 18:40:00,27.5,23.9,30.02,SW,220,6.0,6.0,86,0.00,,,0.00,Wunderground v.1.15,2013-01-03 23:40:00,
2013-01-03 19:10:00,27.7,24.1,30.03,SW,219,6.0,6.0,86,0.00,,,0.00,Wunderground v.1.15,2013-01-04 00:10:00,
2013-01-03 19:40:00,27.8,24.7,30.03,WSW,248,6.0,6.0,88,0.00,,,0.00,Wunderground v.1.15,2013-01-04 00:40:00,
2013-01-03 20:10:00,27.9,24.8,30.03,SW,226,5.0,13.0,88,0.00,,,0.00,Wunderground v.1.15,2013-01-04 01:10:00,
2013-01-03 20:40:00,28.0,24.9,30.03,WSW,253,5.0,5.0,88,0.00,,,0.00,Wunderground v.1.15,2013-01-04 01:40:00,
2013-01-03 21:10:00,28.4,24.5,30.03,WSW,241,7.0,13.0,85,0.00,,,0.00,Wunderground v.1.15,2013-01-04 02:10:00,
2013-01-03 21:40:00,27.9,24.3,30.04,SW,231,8.0,8.0,86,0.00,,,0.00,Wunderground v.1.15,2013-01-04 02:40:00,
2013-01-03 22:10:00,27.7,23.8,30.04,WSW,252,8.0,8.0,85,0.00,,,0.00,Wunderground v.1.15,2013-01-04 03:10:00,
2013-01-03 22:40:00,27.6,23.7,30.04,West,267,7.0,7.0,85,0.00,,,0.00,Wunderground v.1.15,2013-01-04 03:40:00,
2013-01-03 23:10:00,27.9,23.7,30.03,WSW,252,6.0,6.0,84,0.00,,,0.00,Wunderground v.1.15,2013-01-04 04:10:00,
2013-01-03 23:40:00,27.8,23.6,30.03,West,273,6.0,6.0,84,0.00,,,0.00,Wunderground v.1.15,2013-01-04 04:40:00,